Regional Weather Roundup
Issued by NWS

Home | Current Version | Previous Version | Text Only | Print | Product List | Glossary Off
Versions: 1 2 3 4 5 6 7 8 9 10 11 12 13 14 15 16 17 18 19 20 21 22 23 24 25 26 27 28

000
ASUS45 KBOI 260910
RWRID

IDAHO REGIONAL WEATHER ROUNDUP
NATIONAL WEATHER SERVICE BOISE ID
300 AM MDT MON SEP 26 2016

NOTE: "FAIR" INDICATES FEW OR NO CLOUDS BELOW 12000 FEET
WITH NO SIGNIFICANT WEATHER AND/OR OBSTRUCTIONS TO VISIBILITY

IDZ012-014-261000-
SOUTHWEST IDAHO


CITY           SKY/WX    TMP DP  RH WIND       PRES   REMARKS
BOISE          CLEAR     57  40  52 SE10      30.34S
CALDWELL       CLEAR     49  37  63 CALM      30.33
MOUNTAIN HOME  CLEAR     48  39  70 E8        30.35F
$$

IDZ016-017-261000-
SOUTHCENTRAL IDAHO


CITY           SKY/WX    TMP DP  RH WIND       PRES   REMARKS
BURLEY         CLEAR     43  40  89 CALM      30.41S
JEROME         CLEAR     50  38  63 E7        30.41S
TWIN FALLS     CLEAR     48  34  58 S9        30.40F
$$

IDZ019>023-261000-
SOUTHEAST IDAHO


CITY           SKY/WX    TMP DP  RH WIND       PRES   REMARKS
IDAHO FALLS    CLOUDY    40  38  93 CALM      30.45F
POCATELLO      CLEAR     44  37  76 E5        30.44F
REXBURG        CLEAR     40  39  97 NE5       30.46S
$$

IDZ006-010-011-018-031-032-261000-
CENTRAL IDAHO MOUNTAINS


CITY           SKY/WX    TMP DP  RH WIND       PRES   REMARKS
MCCALL         CLEAR     44  39  82 NE3       30.43F
HAILEY         CLEAR     45  41  87 NW8       30.48S
STANLEY          N/A     36  34  92 CALM      30.54F
SALMON         CLEAR     41  37  87 S3        30.45S
CHALLIS        CLEAR     47  39  74 CALM      30.47S
$$

IDZ002-004-006-007-026-261000-
NORTHERN IDAHO


CITY           SKY/WX    TMP DP  RH WIND       PRES   REMARKS
LEWISTON       PTCLDY    60  41  49 E8        30.29F
LOWELL           N/A     48  45  89 CALM      30.41F
COEUR D`ALENE  NOT AVBL
MULLAN PASS    CLEAR     49  38  65 S6        30.47S
$$




USA.gov is the U.S. government's official web portal to all federal, state and local government web resources and services.